Location: ??????????
(41.2581°N, 22.8006°E)
Time: 06:49:04
(UTC+00:00)

IRIDIUM 114 - Pass Details

Date: 13 December 2025
Orbit: 776 x 779 km, 86.4° (Epoch: 13 January)

Event Time Altitude Azimuth Distance (km) Brightness Sun altitude
Rises 15:40:47 0° 357° (N) 3,269 7.3 -7.6°
Reaches altitude 10° 15:43:08 10° 358° (N) 2,337 6.6 -8.0°
Maximum altitude 15:48:23 88° 86° (E) 784 4.3 -8.9°
Drops below altitude 10° 15:53:35 10° 178° (S) 2,318 7.1 -9.8°
Sets 15:55:55 0° 179° (S) 3,241 7.8 -10.2°
